Terminal Aerodrome Forecast
Issued by NWS

Home | Current Version | Previous Version | Text Only | Print | Product List | Glossary On
Versions: 1 2 3 4 5 6 7 8 9 10 11 12
000
FTUS43 KJKL 202300
TAFSME
TAF
KSME 202320Z 2100/2124 30004KT P6SM SKC
     FM210500 00000KT P6SM FEW010 SCT035=

USA.gov is the U.S. government's official web portal to all federal, state and local government web resources and services.